Address 0x6be43dc58e46e65dac001544a35e0a95de59456b

 
Txn Hash
Block
From
To
Value [Txn Fee]
0x4454d7f074465ef4ea5527fd9ffa3d4285c06a6c727e73b3955bdf305fb5303c65629892021-04-14 16:18:267 hrs 24 mins ago0x6be43dc58e46e65dac001544a35e0a95de59456bOUT 0xd0ccd2e103fda6a7d2f501190ecd878b64744cce0 BNB0.001412065
0xc5e969a3a80c75cf522e4a466719dede58527cc52642b69560143b43229765f965629822021-04-14 16:18:057 hrs 25 mins ago0x6be43dc58e46e65dac001544a35e0a95de59456bOUT PancakeSwap: PB Token0 BNB0.000224365
0x1bef796a0b8cf4850086f26b42a345fbe07b8fd9ea05b1ddb587ab7710d0f63765616322021-04-14 15:10:358 hrs 32 mins ago0x6be43dc58e46e65dac001544a35e0a95de59456bOUT0xfceac510dcd9bf08289e2db94ce748c8289347850.0013 BNB0.000105
0x9068f872649c30615d61e34d6bc0c4faac5c644fadaf5236cd08bc018f01952465615672021-04-14 15:07:208 hrs 35 mins ago0x6be43dc58e46e65dac001544a35e0a95de59456bOUT 0xd718baa0b1f4f70dcc8458154042120ffe0deffa0 BNB0.0003604
0x01c33647f996956be866c47ee9a29d8d2b8ed91e217f221816ad47d7edba33db64828822021-04-11 21:28:323 days 2 hrs ago0x6be43dc58e46e65dac001544a35e0a95de59456bOUT 0x38b9861cc8aa30f929425c5b3eb2c8dd57aa2e2f0 BNB0.00043858
0x95070965682bdf5c77e2b00572b308d12398c137867ac335eacf20bade2cfe9964516692021-04-10 19:25:494 days 4 hrs ago0x6be43dc58e46e65dac001544a35e0a95de59456bOUT 0x19e506bbf1d8dbd08e963229434634664a5771110 BNB0.000105
0xaae4e7f8121ab7d063819ca673cb82a75c070adae2059eccf979340bec93f01a63934782021-04-08 18:35:486 days 5 hrs ago0x6be43dc58e46e65dac001544a35e0a95de59456bOUT 0x3f139386406b0924ef115baff71d0d30cc090bd50 BNB0.00188427
0xc642b14635881386f53001096b50b73b60544c78777768b64b99ac4fa4a2765c63551132021-04-07 9:17:167 days 14 hrs ago0x6be43dc58e46e65dac001544a35e0a95de59456bOUT PancakeSwap: Router0.053254216691244 BNB0.00113826
0xcfc3493e3291fba77ea1505ad9de7c24d52dfb2b75c7852db324454a4893bda763550712021-04-07 9:15:107 days 14 hrs ago0x6be43dc58e46e65dac001544a35e0a95de59456bOUT PancakeSwap: Router0 BNB0.0010209
0x2aba80fecf57e87bcbfdcc5ea1d9905e366f239fd6f47836ee2af72452d6f64863397252021-04-06 20:12:188 days 3 hrs ago0x6be43dc58e46e65dac001544a35e0a95de59456bOUT PancakeSwap: Router0.2 BNB0.00187239
0x663f62310c8ae70672193ff48527cbd946af5a8da2ceb69efb94189a3da9e7d163396502021-04-06 20:08:338 days 3 hrs ago0x6be43dc58e46e65dac001544a35e0a95de59456bOUT PancakeSwap: Router0 BNB0.00114398
0x51a7d864afa5ac71ff1719ac7a45859e5e3165fcb435e8cbc95d7b1d092dec8163395942021-04-06 20:05:458 days 3 hrs ago0x6be43dc58e46e65dac001544a35e0a95de59456bOUT PancakeSwap: Router0 BNB0.00185061
0x4881a1ca7232f2452205f158e4eb6e30953b5c7b0dd567b6401b3e016f7cc94963394962021-04-06 20:00:518 days 3 hrs ago0x6be43dc58e46e65dac001544a35e0a95de59456bOUT 0xedfcb78e73f7ba6ad2d829bf5d462a0924da28ed0 BNB0.00781387
0x5b0d350a6a4c4429975d3eba9b63961c0651dcfe643fbd82edc88303edc66ff463394772021-04-06 19:59:548 days 3 hrs ago0x6be43dc58e46e65dac001544a35e0a95de59456bOUT 0x69ff781cf86d42af9bf93c06b8be0f16a2905cbc0 BNB0.01304572
0x339a9f502903f969f36858ede60b83cdf2432f025bd1377abc41f9f92031120563394682021-04-06 19:59:278 days 3 hrs ago0x88ef16f73a1aec40239d7d0ea9ddef09624ecd2a IN 0x6be43dc58e46e65dac001544a35e0a95de59456b0.04 BNB0.00021
0xa14db98070e9c07a267e2be0ca676b7a425ecf654b7f5847470b7e2904cb534263074412021-04-05 16:48:319 days 6 hrs ago0x6be43dc58e46e65dac001544a35e0a95de59456bOUT 0xd718baa0b1f4f70dcc8458154042120ffe0deffa0 BNB0.00074644
0xee9b59a21548aa4633cca270ab450f58667ffba5ffa0471ab593695f374ffbaf63058992021-04-05 15:21:429 days 8 hrs ago0x6be43dc58e46e65dac001544a35e0a95de59456bOUT 0x23c41d28a239ddcaabd1bb1def8d0571895100660 BNB0.00297857
0xfae740d43debe532c17941d65763b2426f86f89f548d4a9e977e6b61adac25f063058962021-04-05 15:21:319 days 8 hrs ago0x03b8aa4676bdca75195a0775d8f4d19c6d71dd36 IN 0x6be43dc58e46e65dac001544a35e0a95de59456b0.001 BNB0.00021
0x5f4ba974c2c7e4e39f3f0f15807d5470be936d991b69c4686834b414b7f91b3061634912021-03-31 15:19:1714 days 8 hrs ago0x6be43dc58e46e65dac001544a35e0a95de59456bOUT PancakeSwap: Router0.003782522848911 BNB0.00118983
0x208f318958db2fc9917ad9053fca212c0d5a5c3b5b26948a8f2734e8f6037f8f61634592021-03-31 15:17:4114 days 8 hrs ago0x6be43dc58e46e65dac001544a35e0a95de59456bOUT PancakeSwap: Router0.005673697238273 BNB0.00133983
0xe9e35d1f323a85ee1ce79be18f6b06e6a028fd047682734f8bf7f16b0c83f70761634242021-03-31 15:15:5614 days 8 hrs ago0x6be43dc58e46e65dac001544a35e0a95de59456bOUT 0xedfcb78e73f7ba6ad2d829bf5d462a0924da28ed0 BNB0.00192607
0x0eaafbaf025345582bc0db5282db8982faccd833aa43a0b6fd277d552c1e380061634092021-03-31 15:15:1114 days 8 hrs ago0x6be43dc58e46e65dac001544a35e0a95de59456bOUT 0x0456c6a001bd46364bbe4387b5129791b18b0d770.2 BNB0.00136378
0x376e7e2b2452532c51171976c010e26f988ebfa393b1924e185815f942fa84a361633882021-03-31 15:14:0814 days 8 hrs ago0x03b8aa4676bdca75195a0775d8f4d19c6d71dd36 IN 0x6be43dc58e46e65dac001544a35e0a95de59456b0.2060177 BNB0.00021
0xe79d9697b82e85ea8f71cf15aca81cbaa6868b7afa1af4ea55a9d583e492a75a60870202021-03-28 23:17:0617 days 25 mins ago0x6be43dc58e46e65dac001544a35e0a95de59456bOUT 0xdf4dbf6536201370f95e06a0f8a7a70fe40e388a0 BNB0.00232234
0x1f5ef4f5cf15c59355384adac4005cc8e00186fda8e6fc99fb5355b17c2a4a4360870152021-03-28 23:16:5117 days 26 mins ago0x6be43dc58e46e65dac001544a35e0a95de59456bOUT PancakeSwap: CAKE Token0 BNB0.00044118
[ Download CSV Export 
Latest 8 internal transactions
Parent Txn Hash Block From To Value
0xaafdeab20a105283f48df7bf96c42d53884232ac260b8e91ea3e2f236e69924765680282021-04-14 20:30:353 hrs 12 mins ago 0xd0ccd2e103fda6a7d2f501190ecd878b64744cce0x6be43dc58e46e65dac001544a35e0a95de59456b0.1078 BNB
0xcfc3493e3291fba77ea1505ad9de7c24d52dfb2b75c7852db324454a4893bda763550712021-04-07 9:15:107 days 14 hrs ago PancakeSwap: Router0x6be43dc58e46e65dac001544a35e0a95de59456b0.051502210805632585 BNB
0x663f62310c8ae70672193ff48527cbd946af5a8da2ceb69efb94189a3da9e7d163396502021-04-06 20:08:338 days 3 hrs ago PancakeSwap: Router0x6be43dc58e46e65dac001544a35e0a95de59456b0.110141533756524846 BNB
0x51a7d864afa5ac71ff1719ac7a45859e5e3165fcb435e8cbc95d7b1d092dec8163395942021-04-06 20:05:458 days 3 hrs ago PancakeSwap: Router0x6be43dc58e46e65dac001544a35e0a95de59456b0.087018923936699513 BNB
0x5f4ba974c2c7e4e39f3f0f15807d5470be936d991b69c4686834b414b7f91b3061634912021-03-31 15:19:1714 days 8 hrs ago PancakeSwap: Router0x6be43dc58e46e65dac001544a35e0a95de59456b0.000033780045482458 BNB
0x208f318958db2fc9917ad9053fca212c0d5a5c3b5b26948a8f2734e8f6037f8f61634592021-03-31 15:17:4114 days 8 hrs ago PancakeSwap: Router0x6be43dc58e46e65dac001544a35e0a95de59456b0.000050669290951598 BNB
0x0bef5151ff2fa4789d59a112aa1ccbf65a3f84c2548800b75393d4b0858e85b960869782021-03-28 23:15:0017 days 28 mins ago PancakeSwap: Router0x6be43dc58e46e65dac001544a35e0a95de59456b0.000808106424836169 BNB
0x9861212df204d0985d1bbe8f341ddcb589cd1bd7fd176eb3143363242fea684760856972021-03-28 22:10:2417 days 1 hr ago PancakeSwap: Router0x6be43dc58e46e65dac001544a35e0a95de59456b0.000008554790462795 BNB
[ Download CSV Export 
Loading

Contract Name:
0 BNB

Compiler Version
0

Optimization Enabled:
0 BNB

Other Settings:
-NA-
Block Transaction Gas Used Reward
Age Block Fee Address BC Fee Address Voting Power Jailed Incoming
Block Uncle Number Difficulty Gas Used Reward
Loading
Loading
Make sure to use the "Vote Down" button for any spammy posts, and the "Vote Up" for interesting conversations.